TimeEDT,TemperatureF,Dew PointF,Humidity,Sea Level PressureIn,VisibilityMPH,Wind Direction,Wind SpeedMPH,Gust SpeedMPH,PrecipitationIn,Events,Conditions,WindDirDegrees,DateUTC
12:53 AM,81.0,77.0,88,29.99,10.0,NNE,3.5,-,N/A,,Partly Cloudy,20,2012-10-09 04:53:00
1:53 AM,81.0,75.9,85,29.99,10.0,Calm,Calm,-,N/A,,Clear,0,2012-10-09 05:53:00
2:53 AM,81.0,75.0,82,29.97,10.0,NE,3.5,-,N/A,,Clear,50,2012-10-09 06:53:00
3:53 AM,80.6,75.2,84,29.95,10.0,Calm,Calm,-,N/A,,Clear,0,2012-10-09 07:53:00
4:53 AM,80.1,75.9,87,29.95,10.0,Calm,Calm,-,N/A,,Clear,0,2012-10-09 08:53:00
5:53 AM,80.1,75.9,87,29.96,10.0,Calm,Calm,-,N/A,,Clear,0,2012-10-09 09:53:00
6:53 AM,80.1,77.0,90,29.96,10.0,Calm,Calm,-,N/A,,Clear,0,2012-10-09 10:53:00
7:53 AM,80.6,77.0,89,29.98,10.0,NE,3.5,-,N/A,,Clear,50,2012-10-09 11:53:00
8:51 AM,84.2,78.8,84,29.99,10.0,ENE,6.9,-,N/A,,Mostly Cloudy,60,2012-10-09 12:51:00
8:53 AM,84.0,77.0,79,29.99,10.0,ENE,5.8,-,N/A,,Mostly Cloudy,70,2012-10-09 12:53:00
9:01 AM,84.2,77.0,79,29.99,10.0,ENE,6.9,-,N/A,,Scattered Clouds,70,2012-10-09 13:01:00
9:53 AM,82.9,75.9,79,30.01,10.0,NNE,8.1,-,N/A,,Partly Cloudy,30,2012-10-09 13:53:00
10:53 AM,84.0,75.9,76,30.02,10.0,NNE,9.2,-,N/A,,Partly Cloudy,30,2012-10-09 14:53:00
11:53 AM,81.0,75.0,82,30.02,10.0,ENE,8.1,-,0.00,Rain,Light Rain,60,2012-10-09 15:53:00
12:53 PM,84.0,77.0,79,30.01,10.0,East,4.6,-,0.00,,Overcast,80,2012-10-09 16:53:00
1:25 PM,82.4,73.4,74,30.00,10.0,NE,10.4,-,0.00,Rain,Light Rain,50,2012-10-09 17:25:00
1:37 PM,78.8,71.6,78,30.00,4.0,ENE,8.1,-,0.03,Rain,Heavy Rain,60,2012-10-09 17:37:00
1:53 PM,82.0,75.9,82,30.00,10.0,NE,4.6,-,0.05,Rain,Light Rain,40,2012-10-09 17:53:00
2:53 PM,86.0,77.0,74,29.98,10.0,ENE,9.2,-,0.00,,Clear,70,2012-10-09 18:53:00
3:53 PM,87.1,75.0,67,29.98,10.0,East,5.8,-,N/A,,Partly Cloudy,80,2012-10-09 19:53:00
4:53 PM,84.9,75.9,74,29.97,10.0,ESE,12.7,-,N/A,,Partly Cloudy,110,2012-10-09 20:53:00
5:53 PM,82.9,75.0,77,29.97,10.0,ESE,9.2,-,N/A,,Clear,120,2012-10-09 21:53:00
6:53 PM,82.9,73.9,74,29.97,10.0,East,4.6,-,N/A,,Clear,100,2012-10-09 22:53:00
7:53 PM,82.0,73.0,74,29.99,10.0,NE,3.5,-,N/A,,Clear,40,2012-10-09 23:53:00
8:53 PM,81.0,73.9,79,30.00,10.0,East,3.5,-,N/A,,Clear,80,2012-10-10 00:53:00
9:53 PM,82.0,75.0,79,30.02,10.0,Calm,Calm,-,N/A,,Clear,0,2012-10-10 01:53:00
10:53 PM,82.0,75.9,82,30.03,10.0,NNE,5.8,-,N/A,,Clear,20,2012-10-10 02:53:00
11:53 PM,82.0,75.0,79,30.03,10.0,Calm,Calm,-,N/A,,Clear,0,2012-10-10 03:53:00